| time (UTC) | temp F | wind direction | speed MPH | gust MPH | rain 1hr in | rain 24hr in | rain mn in | humidity % | barometer mb |
| 20260903034045 | 66 | 253 | 2.0 | 8.0 | 0.00 | 0.01 | 0.00 | 89 | 1017.8 |
| 20260903033542 | 66 | 181 | 3.0 | 9.0 | 0.00 | 0.01 | 0.00 | 89 | 1017.8 |
| 20260903033102 | 66 | 222 | 2.0 | 10.0 | 0.00 | 0.01 | 0.00 | 89 | 1017.8 |
| 20260903032543 | 66 | 235 | 4.0 | 10.0 | 0.00 | 0.01 | 0.00 | 89 | 1017.9 |
| 20260903032044 | 66 | 239 | 3.0 | 10.0 | 0.00 | 0.01 | 0.00 | 89 | 1017.9 |
| 20260903031600 | 66 | 210 | 3.0 | 10.0 | 0.00 | 0.01 | 0.00 | 89 | 1017.7 |
| 20260903031043 | 66 | 219 | 5.0 | 12.0 | 0.00 | 0.01 | 0.00 | 89 | 1017.8 |
| 20260903030544 | 65 | 244 | 5.0 | 12.0 | 0.00 | 0.01 | 0.00 | 89 | 1017.9 |
| 20260903025542 | 66 | 202 | 4.0 | 10.0 | 0.00 | 0.01 | 0.00 | 89 | 1018.0 |
| 20260903025042 | 66 | 206 | 4.0 | 10.0 | 0.00 | 0.01 | 0.00 | 89 | 1017.8 |
| 20260903024602 | 66 | 221 | 3.0 | 10.0 | 0.00 | 0.01 | 0.00 | 89 | 1017.8 |
| 20260903024043 | 66 | 161 | 4.0 | 10.0 | 0.00 | 0.01 | 0.00 | 88 | 1017.9 |
| 20260903023545 | 66 | 213 | 5.0 | 10.0 | 0.00 | 0.01 | 0.00 | 88 | 1017.9 |
| 20260903023104 | 66 | 224 | 4.0 | 9.0 | 0.00 | 0.01 | 0.00 | 88 | 1017.9 |
| 20260903022543 | 66 | 213 | 3.0 | 12.0 | 0.00 | 0.01 | 0.00 | 88 | 1017.9 |
| 20260903022042 | 66 | 206 | 4.0 | 12.0 | 0.00 | 0.01 | 0.00 | 88 | 1018.0 |
| 20260903021559 | 66 | 214 | 5.0 | 9.0 | 0.00 | 0.01 | 0.00 | 88 | 1018.1 |
| 20260903021043 | 66 | 249 | 5.0 | 11.0 | 0.00 | 0.01 | 0.00 | 88 | 1017.9 |
| 20260903020542 | 66 | 255 | 2.0 | 11.0 | 0.00 | 0.01 | 0.00 | 88 | 1017.9 |
| 20260903020100 | 65 | 200 | 3.0 | 9.0 | 0.00 | 0.01 | 0.00 | 88 | 1017.8 |
| 20260903015543 | 66 | 213 | 3.0 | 7.0 | 0.00 | 0.01 | 0.00 | 88 | 1017.9 |
| 20260903015042 | 65 | 200 | 2.0 | 7.0 | 0.00 | 0.01 | 0.00 | 88 | 1017.8 |
| 20260903014612 | 66 | 210 | 2.0 | 11.0 | 0.00 | 0.01 | 0.00 | 88 | 1017.8 |
| 20260903014043 | 65 | 192 | 5.0 | 11.0 | 0.00 | 0.01 | 0.00 | 88 | 1017.9 |
| 20260903013543 | 65 | 249 | 2.0 | 9.0 | 0.00 | 0.01 | 0.00 | 88 | 1018.0 |
| 20260903013100 | 65 | 208 | 3.0 | 9.0 | 0.00 | 0.01 | 0.00 | 88 | 1018.0 |
| 20260903012544 | 65 | 228 | 4.0 | 9.0 | 0.00 | 0.01 | 0.00 | 88 | 1018.1 |
| 20260903012044 | 65 | 202 | 3.0 | 9.0 | 0.00 | 0.01 | 0.00 | 88 | 1017.9 |
| 20260903011602 | 65 | 225 | 3.0 | 9.0 | 0.00 | 0.01 | 0.00 | 88 | 1018.1 |
| 20260903011044 | 65 | 256 | 4.0 | 9.0 | 0.00 | 0.01 | 0.00 | 89 | 1018.2 |
| 20260903010543 | 65 | 177 | 3.0 | 10.0 | 0.00 | 0.01 | 0.00 | 89 | 1018.1 |
| 20260903010105 | 65 | 223 | 3.0 | 10.0 | 0.00 | 0.01 | 0.00 | 88 | 1018.1 |
| 20260903005546 | 65 | 212 | 5.0 | 10.0 | 0.00 | 0.01 | 0.00 | 88 | 1018.2 |
| 20260903005043 | 65 | 211 | 2.0 | 11.0 | 0.00 | 0.01 | 0.00 | 88 | 1018.4 |
| 20260903004601 | 65 | 233 | 3.0 | 11.0 | 0.00 | 0.01 | 0.00 | 89 | 1018.4 |
| 20260903004046 | 65 | 200 | 2.0 | 9.0 | 0.00 | 0.01 | 0.00 | 89 | 1018.5 |
| 20260903003543 | 66 | 201 | 3.0 | 9.0 | 0.00 | 0.01 | 0.00 | 88 | 1018.6 |
| 20260903003103 | 66 | 192 | 3.0 | 9.0 | 0.00 | 0.01 | 0.00 | 88 | 1018.6 |
| 20260903002543 | 66 | 248 | 4.0 | 12.0 | 0.00 | 0.01 | 0.00 | 88 | 1018.8 |
| 20260903002043 | 66 | 215 | 4.0 | 12.0 | 0.00 | 0.01 | 0.00 | 88 | 1018.7 |
| 20260903001600 | 66 | 223 | 3.0 | 9.0 | 0.00 | 0.01 | 0.00 | 88 | 1018.7 |
| 20260903001044 | 66 | 217 | 3.0 | 12.0 | 0.00 | 0.01 | 0.00 | 88 | 1018.7 |
| 20260903000544 | 66 | 233 | 4.0 | 12.0 | 0.00 | 0.01 | 0.00 | 88 | 1018.7 |
| 20260903000103 | 66 | 222 | 5.0 | 12.0 | 0.00 | 0.01 | 0.00 | 88 | 1018.5 |
| 20260902235544 | 66 | 198 | 4.0 | 12.0 | 0.00 | 0.01 | 0.00 | 88 | 1018.5 |
| 20260902235043 | 66 | 205 | 6.0 | 11.0 | 0.00 | 0.01 | 0.00 | 88 | 1018.6 |
| 20260902234601 | 66 | 248 | 4.0 | 12.0 | 0.00 | 0.01 | 0.00 | 88 | 1018.7 |
| 20260902234047 | 66 | 217 | 6.0 | 12.0 | 0.00 | 0.01 | 0.00 | 88 | 1018.6 |
| 20260902233546 | 66 | 231 | 6.0 | 12.0 | 0.00 | 0.01 | 0.00 | 89 | 1018.6 |
| 20260902233101 | 66 | 233 | 4.0 | 11.0 | 0.00 | 0.01 | 0.00 | 89 | 1018.5 |
| 20260902232543 | 66 | 167 | 5.0 | 12.0 | 0.00 | 0.01 | 0.00 | 89 | 1018.6 |
| 20260902232044 | 66 | 226 | 4.0 | 14.0 | 0.00 | 0.01 | 0.00 | 89 | 1018.6 |
| 20260902231603 | 66 | 224 | 6.0 | 14.0 | 0.00 | 0.01 | 0.00 | 89 | 1018.9 |
| 20260902231046 | 66 | 187 | 4.0 | 13.0 | 0.00 | 0.01 | 0.00 | 89 | 1018.9 |
| 20260902230543 | 66 | 195 | 6.0 | 13.0 | 0.00 | 0.01 | 0.00 | 89 | 1018.9 |
| 20260902230115 | 66 | 220 | 3.0 | 11.0 | 0.00 | 0.01 | 0.00 | 89 | 1018.9 |
| 20260902225544 | 66 | 204 | 4.0 | 11.0 | 0.00 | 0.01 | 0.01 | 89 | 1018.9 |
| 20260902225043 | 66 | 224 | 6.0 | 12.0 | 0.00 | 0.01 | 0.01 | 89 | 1018.7 |
| 20260902224609 | 66 | 208 | 3.0 | 12.0 | 0.00 | 0.01 | 0.01 | 89 | 1018.6 |
| 20260902224045 | 66 | 248 | 6.0 | 12.0 | 0.00 | 0.01 | 0.01 | 89 | 1018.5 |
| 20260902223544 | 66 | 238 | 6.0 | 11.0 | 0.00 | 0.01 | 0.01 | 89 | 1018.6 |
| 20260902223118 | 66 | 202 | 5.0 | 10.0 | 0.00 | 0.01 | 0.01 | 89 | 1018.8 |
| 20260902222543 | 66 | 167 | 2.0 | 12.0 | 0.00 | 0.01 | 0.01 | 89 | 1018.8 |
| 20260902222045 | 66 | 220 | 5.0 | 12.0 | 0.00 | 0.01 | 0.01 | 89 | 1018.7 |
| 20260902221607 | 66 | 197 | 4.0 | 13.0 | 0.00 | 0.01 | 0.01 | 89 | 1018.8 |
| 20260902221046 | 66 | 213 | 4.0 | 13.0 | 0.00 | 0.01 | 0.01 | 89 | 1018.9 |
| 20260902220543 | 66 | 224 | 5.0 | 13.0 | 0.00 | 0.01 | 0.01 | 89 | 1018.9 |
| 20260902220104 | 66 | 233 | 3.0 | 9.0 | 0.00 | 0.01 | 0.01 | 89 | 1018.9 |
| 20260902215542 | 66 | 249 | 4.0 | 9.0 | 0.00 | 0.01 | 0.01 | 89 | 1018.8 |
| 20260902215127 | 66 | 212 | 2.0 | 11.0 | 0.00 | 0.01 | 0.01 | 89 | 1018.8 |
| 20260902214559 | 66 | 236 | 2.0 | 11.0 | 0.00 | 0.01 | 0.01 | 89 | 1018.6 |
| 20260902214046 | 66 | 235 | 4.0 | 11.0 | 0.00 | 0.01 | 0.01 | 89 | 1018.3 |
| 20260902213543 | 66 | 216 | 3.0 | 11.0 | 0.00 | 0.01 | 0.01 | 89 | 1018.5 |
| 20260902213108 | 66 | 217 | 5.0 | 12.0 | 0.00 | 0.01 | 0.01 | 89 | 1018.4 |
| 20260902212544 | 66 | 201 | 6.0 | 12.0 | 0.00 | 0.01 | 0.01 | 89 | 1018.5 |
| 20260902212043 | 66 | 219 | 4.0 | 12.0 | 0.00 | 0.01 | 0.01 | 89 | 1018.5 |
| 20260902211605 | 66 | 227 | 4.0 | 13.0 | 0.00 | 0.01 | 0.01 | 89 | 1018.5 |
| 20260902211044 | 66 | 189 | 4.0 | 14.0 | 0.00 | 0.01 | 0.01 | 89 | 1018.6 |
| 20260902210543 | 66 | 236 | 5.0 | 14.0 | 0.00 | 0.01 | 0.01 | 90 | 1018.5 |
| 20260902210104 | 66 | 234 | 4.0 | 10.0 | 0.00 | 0.01 | 0.01 | 90 | 1018.7 |
| 20260902205543 | 66 | 246 | 4.0 | 11.0 | 0.00 | 0.01 | 0.01 | 90 | 1018.8 |
| 20260902205046 | 66 | 205 | 3.0 | 12.0 | 0.00 | 0.01 | 0.01 | 90 | 1018.6 |
| 20260902204604 | 66 | 213 | 6.0 | 12.0 | 0.00 | 0.01 | 0.01 | 90 | 1018.7 |
| 20260902204043 | 66 | 186 | 4.0 | 16.0 | 0.00 | 0.01 | 0.01 | 90 | 1018.6 |
| 20260902203545 | 66 | 215 | 5.0 | 16.0 | 0.00 | 0.01 | 0.01 | 90 | 1018.6 |
| 20260902203103 | 66 | 215 | 4.0 | 10.0 | 0.00 | 0.01 | 0.01 | 90 | 1018.5 |
| 20260902202543 | 66 | 219 | 5.0 | 10.0 | 0.00 | 0.01 | 0.01 | 89 | 1018.5 |
| 20260902202044 | 66 | 215 | 5.0 | 10.0 | 0.00 | 0.01 | 0.01 | 89 | 1018.3 |
| 20260902201603 | 66 | 210 | 5.0 | 10.0 | 0.00 | 0.01 | 0.01 | 89 | 1018.4 |
| 20260902201044 | 66 | 217 | 5.0 | 12.0 | 0.00 | 0.01 | 0.01 | 90 | 1018.4 |
| 20260902200544 | 66 | 211 | 5.0 | 12.0 | 0.00 | 0.01 | 0.01 | 90 | 1018.4 |
| 20260902200104 | 66 | 202 | 4.0 | 12.0 | 0.00 | 0.01 | 0.01 | 90 | 1018.5 |
| 20260902195547 | 66 | 202 | 4.0 | 9.0 | 0.00 | 0.01 | 0.01 | 90 | 1018.4 |
| 20260902195044 | 66 | 222 | 3.0 | 10.0 | 0.00 | 0.01 | 0.01 | 90 | 1018.5 |
| 20260902194610 | 66 | 218 | 4.0 | 10.0 | 0.00 | 0.01 | 0.01 | 90 | 1018.6 |
| 20260902194044 | 66 | 185 | 4.0 | 10.0 | 0.00 | 0.01 | 0.01 | 90 | 1018.5 |
| 20260902193543 | 66 | 234 | 4.0 | 10.0 | 0.00 | 0.01 | 0.01 | 90 | 1018.5 |
| 20260902193128 | 66 | 221 | 3.0 | 11.0 | 0.00 | 0.01 | 0.01 | 90 | 1018.5 |
| 20260902192543 | 66 | 195 | 5.0 | 11.0 | 0.00 | 0.01 | 0.01 | 90 | 1018.5 |
| 20260902192047 | 66 | 192 | 4.0 | 13.0 | 0.00 | 0.01 | 0.01 | 90 | 1018.5 |
| 20260902191604 | 66 | 232 | 6.0 | 14.0 | 0.00 | 0.01 | 0.01 | 90 | 1018.4 |
| 20260902191043 | 66 | 234 | 6.0 | 14.0 | 0.00 | 0.01 | 0.01 | 90 | 1018.4 |
| 20260902190543 | 66 | 184 | 5.0 | 13.0 | 0.00 | 0.01 | 0.01 | 90 | 1018.2 |
| 20260902190111 | 66 | 185 | 5.0 | 13.0 | 0.00 | 0.01 | 0.01 | 90 | 1018.3 |
| 20260902185543 | 65 | 212 | 5.0 | 13.0 | 0.00 | 0.01 | 0.01 | 91 | 1018.3 |
| 20260902185042 | 65 | 223 | 4.0 | 10.0 | 0.00 | 0.01 | 0.01 | 91 | 1018.2 |
| 20260902184620 | 65 | 173 | 4.0 | 10.0 | 0.00 | 0.01 | 0.01 | 91 | 1018.0 |
| 20260902184044 | 65 | 205 | 4.0 | 15.0 | 0.00 | 0.01 | 0.01 | 91 | 1018.1 |
| 20260902183544 | 65 | 180 | 4.0 | 15.0 | 0.00 | 0.01 | 0.01 | 91 | 1018.1 |
| 20260902183121 | 65 | 186 | 5.0 | 15.0 | 0.00 | 0.01 | 0.01 | 91 | 1018.2 |
| 20260902182543 | 65 | 214 | 6.0 | 14.0 | 0.00 | 0.01 | 0.01 | 91 | 1018.0 |
| 20260902182045 | 65 | 149 | 6.0 | 14.0 | 0.00 | 0.01 | 0.01 | 92 | 1018.1 |
| 20260902181602 | 65 | 220 | 6.0 | 13.0 | 0.00 | 0.01 | 0.01 | 92 | 1018.1 |
| 20260902181044 | 65 | 216 | 4.0 | 13.0 | 0.00 | 0.01 | 0.01 | 92 | 1018.1 |
| 20260902180544 | 65 | 207 | 4.0 | 11.0 | 0.00 | 0.01 | 0.01 | 92 | 1018.3 |
| 20260902180057 | 65 | 215 | 5.0 | 12.0 | 0.00 | 0.01 | 0.01 | 92 | 1018.3 |
| 20260902175544 | 65 | 227 | 3.0 | 12.0 | 0.00 | 0.01 | 0.01 | 92 | 1018.4 |
| 20260902175044 | 65 | 177 | 3.0 | 10.0 | 0.00 | 0.01 | 0.01 | 92 | 1018.4 |
| 20260902174608 | 65 | 205 | 3.0 | 10.0 | 0.00 | 0.01 | 0.01 | 91 | 1018.4 |
| 20260902174044 | 65 | 249 | 3.0 | 10.0 | 0.00 | 0.01 | 0.01 | 91 | 1018.4 |
| 20260902173544 | 65 | 132 | 2.0 | 15.0 | 0.00 | 0.01 | 0.01 | 91 | 1018.5 |
| 20260902173104 | 65 | 205 | 3.0 | 15.0 | 0.00 | 0.01 | 0.01 | 91 | 1018.6 |
| 20260902172543 | 65 | 198 | 6.0 | 14.0 | 0.00 | 0.01 | 0.01 | 90 | 1018.5 |
| 20260902172044 | 65 | 208 | 5.0 | 13.0 | 0.00 | 0.01 | 0.01 | 90 | 1018.6 |
| 20260902171605 | 65 | 208 | 4.0 | 13.0 | 0.00 | 0.01 | 0.01 | 90 | 1018.5 |
| 20260902171046 | 65 | 215 | 4.0 | 14.0 | 0.00 | 0.01 | 0.01 | 89 | 1018.3 |
| 20260902170543 | 65 | 176 | 6.0 | 17.0 | 0.00 | 0.01 | 0.01 | 89 | 1018.5 |
| 20260902165544 | 65 | 231 | 6.0 | 17.0 | 0.00 | 0.01 | 0.01 | 88 | 1018.5 |
| 20260902165044 | 65 | 228 | 4.0 | 14.0 | 0.00 | 0.01 | 0.01 | 88 | 1018.4 |
| 20260902164604 | 65 | 213 | 6.0 | 14.0 | 0.00 | 0.01 | 0.01 | 88 | 1018.5 |
| 20260902164044 | 65 | 191 | 5.0 | 14.0 | 0.00 | 0.01 | 0.01 | 87 | 1018.5 |
| 20260902163543 | 65 | 192 | 6.0 | 13.0 | 0.00 | 0.01 | 0.01 | 87 | 1018.6 |
| 20260902163105 | 65 | 200 | 5.0 | 15.0 | 0.00 | 0.01 | 0.01 | 87 | 1018.6 |
| 20260902162544 | 65 | 171 | 6.0 | 16.0 | 0.00 | 0.01 | 0.01 | 87 | 1018.6 |
| 20260902162044 | 66 | 178 | 7.0 | 17.0 | 0.00 | 0.01 | 0.01 | 86 | 1018.6 |
| 20260902161612 | 66 | 206 | 5.0 | 17.0 | 0.00 | 0.01 | 0.01 | 86 | 1018.6 |
| 20260902161044 | 66 | 185 | 6.0 | 13.0 | 0.00 | 0.01 | 0.01 | 86 | 1018.8 |
| 20260902160544 | 66 | 178 | 6.0 | 16.0 | 0.00 | 0.01 | 0.01 | 85 | 1018.7 |
| 20260902160103 | 66 | 218 | 7.0 | 17.0 | 0.00 | 0.01 | 0.01 | 85 | 1018.7 |
| 20260902155543 | 66 | 145 | 6.0 | 19.0 | 0.00 | 0.01 | 0.01 | 85 | 1018.9 |
| 20260902155044 | 66 | 201 | 8.0 | 20.0 | 0.00 | 0.01 | 0.01 | 85 | 1018.8 |
| 20260902154600 | 66 | 250 | 7.0 | 20.0 | 0.00 | 0.01 | 0.01 | 85 | 1019.0 |
| 20260902154044 | 66 | 213 | 5.0 | 18.0 | 0.00 | 0.01 | 0.01 | 85 | 1018.8 |
| 20260902153544 | 66 | 190 | 6.0 | 17.0 | 0.00 | 0.01 | 0.01 | 85 | 1019.0 |
| 20260902153109 | 66 | 204 | 7.0 | 17.0 | 0.00 | 0.01 | 0.01 | 84 | 1019.1 |
| 20260902152543 | 66 | 132 | 6.0 | 20.0 | 0.00 | 0.01 | 0.01 | 84 | 1019.1 |
| 20260902152043 | 66 | 205 | 6.0 | 20.0 | 0.00 | 0.01 | 0.01 | 84 | 1019.2 |
| 20260902151606 | 66 | 174 | 9.0 | 20.0 | 0.00 | 0.01 | 0.01 | 84 | 1019.4 |
| 20260902151047 | 66 | 134 | 9.0 | 16.0 | 0.00 | 0.01 | 0.01 | 83 | 1019.4 |
| 20260902150546 | 66 | 217 | 4.0 | 12.0 | 0.00 | 0.01 | 0.01 | 83 | 1019.3 |
| 20260902145544 | 66 | 217 | 5.0 | 20.0 | 0.00 | 0.01 | 0.01 | 83 | 1019.4 |
| 20260902145044 | 66 | 202 | 4.0 | 20.0 | 0.00 | 0.01 | 0.01 | 82 | 1019.5 |
| 20260902144604 | 67 | 234 | 8.0 | 20.0 | 0.00 | 0.01 | 0.01 | 80 | 1019.5 |
| 20260902144043 | 67 | 175 | 5.0 | 16.0 | 0.00 | 0.01 | 0.01 | 78 | 1019.5 |
| 20260902143544 | 67 | 190 | 5.0 | 16.0 | 0.00 | 0.01 | 0.01 | 77 | 1019.6 |
| 20260902143100 | 67 | 213 | 6.0 | 16.0 | 0.00 | 0.01 | 0.01 | 77 | 1019.6 |
| 20260902142544 | 67 | 231 | 6.0 | 12.0 | 0.00 | 0.01 | 0.01 | 77 | 1019.6 |
| 20260902142044 | 67 | 204 | 5.0 | 15.0 | 0.00 | 0.01 | 0.01 | 77 | 1019.6 |
| 20260902141600 | 67 | 217 | 4.0 | 17.0 | 0.00 | 0.01 | 0.01 | 77 | 1019.7 |
| 20260902141046 | 67 | 198 | 4.0 | 18.0 | 0.00 | 0.01 | 0.01 | 77 | 1019.7 |
| 20260902140543 | 67 | 197 | 8.0 | 18.0 | 0.00 | 0.01 | 0.01 | 76 | 1019.7 |
| 20260902140106 | 67 | 197 | 10.0 | 18.0 | 0.00 | 0.01 | 0.01 | 76 | 1019.8 |
| 20260902135543 | 67 | 223 | 7.0 | 18.0 | 0.00 | 0.01 | 0.01 | 76 | 1019.8 |
| 20260902135044 | 67 | 200 | 7.0 | 18.0 | 0.00 | 0.01 | 0.01 | 75 | 1019.8 |
| 20260902134606 | 67 | 215 | 7.0 | 17.0 | 0.00 | 0.01 | 0.01 | 75 | 1019.7 |
| 20260902134043 | 67 | 201 | 5.0 | 16.0 | 0.00 | 0.01 | 0.01 | 75 | 1019.8 |
| 20260902133543 | 67 | 194 | 5.0 | 26.0 | 0.00 | 0.01 | 0.01 | 74 | 1019.9 |
| 20260902133109 | 67 | 195 | 7.0 | 26.0 | 0.00 | 0.01 | 0.01 | 74 | 1019.9 |
| 20260902132546 | 66 | 206 | 6.0 | 20.0 | 0.00 | 0.01 | 0.01 | 74 | 1019.9 |
| 20260902132043 | 66 | 196 | 3.0 | 12.0 | 0.00 | 0.01 | 0.01 | 74 | 1020.2 |
| 20260902131558 | 66 | 224 | 5.0 | 14.0 | 0.00 | 0.01 | 0.01 | 74 | 1020.1 |
| 20260902131044 | 66 | 196 | 4.0 | 23.0 | 0.00 | 0.01 | 0.01 | 74 | 1020.2 |
| 20260902130543 | 66 | 177 | 6.0 | 23.0 | 0.00 | 0.01 | 0.01 | 73 | 1020.3 |
| 20260902130105 | 66 | 207 | 9.0 | 23.0 | 0.00 | 0.01 | 0.01 | 73 | 1020.3 |
| 20260902125544 | 66 | 224 | 7.0 | 15.0 | 0.00 | 0.01 | 0.01 | 74 | 1020.4 |
| 20260902125044 | 66 | 244 | 6.0 | 14.0 | 0.00 | 0.01 | 0.01 | 75 | 1020.4 |
| 20260902124605 | 66 | 217 | 4.0 | 11.0 | 0.00 | 0.01 | 0.01 | 76 | 1020.5 |
| 20260902124045 | 66 | 189 | 3.0 | 10.0 | 0.00 | 0.01 | 0.01 | 76 | 1020.5 |
| 20260902123543 | 66 | 224 | 3.0 | 12.0 | 0.00 | 0.01 | 0.01 | 76 | 1020.5 |
| 20260902123120 | 66 | 190 | 4.0 | 13.0 | 0.00 | 0.01 | 0.01 | 76 | 1020.5 |
| 20260902122544 | 66 | 236 | 6.0 | 13.0 | 0.00 | 0.01 | 0.01 | 76 | 1020.6 |
| 20260902122044 | 66 | 194 | 4.0 | 14.0 | 0.00 | 0.01 | 0.01 | 77 | 1020.5 |
| 20260902121601 | 66 | 197 | 4.0 | 14.0 | 0.00 | 0.01 | 0.01 | 78 | 1020.6 |
| 20260902121044 | 66 | 244 | 4.0 | 13.0 | 0.00 | 0.01 | 0.01 | 78 | 1020.7 |
| 20260902120544 | 66 | 213 | 5.0 | 13.0 | 0.00 | 0.01 | 0.01 | 79 | 1020.6 |
| 20260902115543 | 65 | 124 | 4.0 | 14.0 | 0.00 | 0.01 | 0.01 | 81 | 1020.6 |
| 20260902115044 | 65 | 211 | 4.0 | 14.0 | 0.00 | 0.01 | 0.01 | 82 | 1020.7 |
| 20260902114606 | 65 | 225 | 6.0 | 13.0 | 0.00 | 0.01 | 0.01 | 83 | 1020.8 |
| 20260902114046 | 64 | 192 | 3.0 | 10.0 | 0.00 | 0.01 | 0.01 | 85 | 1020.8 |
| 20260902113545 | 64 | 236 | 5.0 | 11.0 | 0.00 | 0.01 | 0.01 | 85 | 1021.0 |
| 20260902113116 | 63 | 188 | 4.0 | 11.0 | 0.00 | 0.01 | 0.01 | 87 | 1020.8 |
| 20260902112544 | 63 | 190 | 4.0 | 11.0 | 0.00 | 0.01 | 0.01 | 88 | 1021.0 |
| 20260902112044 | 63 | 198 | 5.0 | 12.0 | 0.00 | 0.01 | 0.01 | 89 | 1021.3 |
| 20260902111559 | 63 | 205 | 4.0 | 12.0 | 0.00 | 0.01 | 0.01 | 90 | 1021.1 |
| 20260902111045 | 63 | 213 | 3.0 | 11.0 | 0.00 | 0.01 | 0.01 | 90 | 1021.1 |
| 20260902110543 | 63 | 240 | 2.0 | 5.0 | 0.00 | 0.01 | 0.01 | 91 | 1021.3 |
| 20260902110101 | 63 | 131 | 1.0 | 9.0 | 0.00 | 0.01 | 0.01 | 91 | 1021.2 |
| 20260902105543 | 63 | 194 | 2.0 | 9.0 | 0.00 | 0.01 | 0.01 | 91 | 1021.3 |
| 20260902105047 | 63 | 175 | 1.0 | 7.0 | 0.00 | 0.01 | 0.01 | 92 | 1021.3 |
| 20260902104600 | 63 | 144 | 2.0 | 6.0 | 0.00 | 0.01 | 0.01 | 92 | 1021.5 |
| 20260902104044 | 63 | 0 | 1.0 | 6.0 | 0.01 | 0.01 | 0.01 | 92 | 1021.4 |
| 20260902103543 | 63 | 0 | 0.0 | 4.0 | 0.01 | 0.01 | 0.01 | 92 | 1021.5 |
| 20260902103109 | 63 | 0 | 1.0 | 6.0 | 0.01 | 0.01 | 0.01 | 92 | 1021.5 |
| 20260902102547 | 62 | 0 | 1.0 | 6.0 | 0.01 | 0.01 | 0.01 | 91 | 1021.6 |
| 20260902102044 | 62 | 208 | 2.0 | 6.0 | 0.01 | 0.01 | 0.01 | 91 | 1021.7 |
| 20260902101559 | 62 | 0 | 0.0 | 5.0 | 0.00 | 0.00 | 0.00 | 91 | 1021.7 |
| 20260902101047 | 62 | 0 | 0.0 | 5.0 | 0.00 | 0.00 | 0.00 | 91 | 1021.7 |
| 20260902100544 | 62 | 209 | 1.0 | 7.0 | 0.00 | 0.00 | 0.00 | 90 | 1021.7 |
| 20260902100119 | 61 | 0 | 2.0 | 7.0 | 0.00 | 0.00 | 0.00 | 90 | 1021.8 |
| 20260902095546 | 62 | 213 | 2.0 | 7.0 | 0.00 | 0.00 | 0.00 | 89 | 1021.9 |
| 20260902095044 | 62 | 188 | 3.0 | 10.0 | 0.00 | 0.00 | 0.00 | 88 | 1021.9 |
| 20260902094604 | 62 | 215 | 4.0 | 11.0 | 0.00 | 0.00 | 0.00 | 88 | 1021.7 |
| 20260902094044 | 62 | 217 | 3.0 | 13.0 | 0.00 | 0.00 | 0.00 | 87 | 1021.9 |
| 20260902093543 | 63 | 219 | 6.0 | 13.0 | 0.00 | 0.00 | 0.00 | 86 | 1021.8 |
| 20260902093103 | 63 | 223 | 5.0 | 12.0 | 0.00 | 0.00 | 0.00 | 85 | 1021.7 |
| 20260902092543 | 64 | 236 | 4.0 | 11.0 | 0.00 | 0.00 | 0.00 | 84 | 1021.7 |
| 20260902092047 | 64 | 207 | 4.0 | 11.0 | 0.00 | 0.00 | 0.00 | 83 | 1021.7 |
| 20260902091609 | 64 | 207 | 5.0 | 12.0 | 0.00 | 0.00 | 0.00 | 83 | 1021.7 |
| 20260902091043 | 64 | 205 | 3.0 | 12.0 | 0.00 | 0.00 | 0.00 | 84 | 1021.8 |
| 20260902090543 | 64 | 167 | 3.0 | 10.0 | 0.00 | 0.00 | 0.00 | 85 | 1021.8 |
| 20260902085543 | 63 | 250 | 3.0 | 9.0 | 0.00 | 0.00 | 0.00 | 85 | 1021.7 |
| 20260902085045 | 63 | 217 | 3.0 | 9.0 | 0.00 | 0.00 | 0.00 | 85 | 1021.7 |
| 20260902084602 | 63 | 212 | 1.0 | 7.0 | 0.00 | 0.00 | 0.00 | 86 | 1021.8 |
| 20260902084044 | 63 | 210 | 1.0 | 7.0 | 0.00 | 0.00 | 0.00 | 86 | 1021.6 |
| 20260902083543 | 63 | 208 | 3.0 | 7.0 | 0.00 | 0.00 | 0.00 | 86 | 1021.7 |
| 20260902083100 | 63 | 215 | 2.0 | 6.0 | 0.00 | 0.00 | 0.00 | 86 | 1021.6 |
| 20260902082543 | 63 | 186 | 2.0 | 6.0 | 0.00 | 0.00 | 0.00 | 86 | 1021.7 |
| 20260902082043 | 63 | 220 | 2.0 | 7.0 | 0.00 | 0.00 | 0.00 | 87 | 1021.6 |
| 20260902081556 | 62 | 244 | 2.0 | 7.0 | 0.00 | 0.00 | 0.00 | 87 | 1021.5 |
| 20260902081044 | 62 | 211 | 1.0 | 5.0 | 0.00 | 0.00 | 0.00 | 87 | 1021.4 |
| 20260902080544 | 62 | 252 | 2.0 | 5.0 | 0.00 | 0.00 | 0.00 | 87 | 1021.4 |
| 20260902080112 | 62 | 208 | 2.0 | 7.0 | 0.00 | 0.00 | 0.00 | 87 | 1021.4 |
| 20260902075544 | 62 | 0 | 3.0 | 8.0 | 0.00 | 0.00 | 0.00 | 87 | 1021.3 |
| 20260902075044 | 62 | 250 | 3.0 | 8.0 | 0.00 | 0.00 | 0.00 | 87 | 1021.4 |
| 20260902074621 | 62 | 216 | 2.0 | 8.0 | 0.00 | 0.00 | 0.00 | 88 | 1021.3 |
| 20260902074046 | 62 | 244 | 1.0 | 7.0 | 0.00 | 0.00 | 0.00 | 88 | 1021.4 |
| 20260902073543 | 61 | 225 | 2.0 | 7.0 | 0.00 | 0.00 | 0.00 | 88 | 1021.4 |
| 20260902073110 | 61 | 208 | 2.0 | 6.0 | 0.00 | 0.00 | 0.00 | 88 | 1021.2 |
| 20260902072545 | 61 | 238 | 1.0 | 6.0 | 0.00 | 0.00 | 0.00 | 89 | 1021.2 |
| 20260902072043 | 61 | 0 | 2.0 | 6.0 | 0.00 | 0.00 | 0.00 | 88 | 1021.2 |
| 20260902071619 | 61 | 205 | 1.0 | 4.0 | 0.00 | 0.00 | 0.00 | 89 | 1021.4 |
| 20260902071046 | 61 | 244 | 1.0 | 4.0 | 0.00 | 0.00 | 0.00 | 89 | 1021.4 |
| 20260902070542 | 60 | 235 | 2.0 | 3.0 | 0.00 | 0.00 | 0.00 | 88 | 1021.4 |
| 20260902070105 | 60 | 208 | 0.0 | 3.0 | 0.00 | 0.00 | 0.00 | 88 | 1021.4 |
| 20260902065545 | 60 | 207 | 1.0 | 4.0 | 0.00 | 0.00 | 0.00 | 88 | 1021.2 |
| 20260902065044 | 60 | 203 | 1.0 | 5.0 | 0.00 | 0.00 | 0.00 | 88 | 1021.3 |
| 20260902064609 | 60 | 202 | 1.0 | 5.0 | 0.00 | 0.00 | 0.00 | 89 | 1021.4 |
| 20260902064043 | 60 | 178 | 1.0 | 4.0 | 0.00 | 0.00 | 0.00 | 89 | 1021.3 |
| 20260902063544 | 60 | 0 | 0.0 | 3.0 | 0.00 | 0.00 | 0.00 | 89 | 1021.3 |
| 20260902063101 | 59 | 0 | 0.0 | 3.0 | 0.00 | 0.00 | 0.00 | 89 | 1021.2 |
| 20260902062543 | 59 | 0 | 0.0 | 3.0 | 0.00 | 0.00 | 0.00 | 89 | 1021.2 |
| 20260902062047 | 59 | 167 | 0.0 | 3.0 | 0.00 | 0.00 | 0.00 | 88 | 1021.1 |
| 20260902061611 | 59 | 0 | 0.0 | 4.0 | 0.00 | 0.00 | 0.00 | 88 | 1021.0 |
| 20260902061044 | 59 | 167 | 0.0 | 4.0 | 0.00 | 0.00 | 0.00 | 88 | 1021.0 |
| 20260902060545 | 59 | 171 | 0.0 | 4.0 | 0.00 | 0.00 | 0.00 | 88 | 1020.7 |
| 20260902055543 | 59 | 190 | 0.0 | 4.0 | 0.00 | 0.00 | 0.00 | 88 | 1021.0 |
| 20260902055043 | 59 | 0 | 0.0 | 2.0 | 0.00 | 0.00 | 0.00 | 88 | 1021.3 |
| 20260902054603 | 59 | 0 | 0.0 | 2.0 | 0.00 | 0.00 | 0.00 | 87 | 1021.2 |
| 20260902054043 | 59 | 0 | 0.0 | 2.0 | 0.00 | 0.00 | 0.00 | 87 | 1021.1 |
| 20260902053544 | 59 | 0 | 0.0 | 3.0 | 0.00 | 0.00 | 0.00 | 87 | 1021.1 |
| 20260902053102 | 59 | 0 | 0.0 | 3.0 | 0.00 | 0.00 | 0.00 | 87 | 1021.0 |
| 20260902052542 | 59 | 0 | 0.0 | 3.0 | 0.00 | 0.00 | 0.00 | 87 | 1020.8 |
| 20260902052042 | 60 | 0 | 0.0 | 4.0 | 0.00 | 0.00 | 0.00 | 87 | 1020.9 |
| 20260902051600 | 60 | 0 | 0.0 | 4.0 | 0.00 | 0.00 | 0.00 | 87 | 1020.8 |
| 20260902051043 | 60 | 204 | 0.0 | 4.0 | 0.00 | 0.00 | 0.00 | 87 | 1020.9 |
| 20260902050546 | 60 | 0 | 0.0 | 4.0 | 0.00 | 0.00 | 0.00 | 87 | 1021.0 |
| 20260902050104 | 60 | 0 | 0.0 | 4.0 | 0.00 | 0.00 | 0.00 | 86 | 1021.1 |
| 20260902045543 | 60 | 0 | 0.0 | 4.0 | 0.00 | 0.00 | 0.00 | 86 | 1021.0 |
| 20260902045043 | 60 | 214 | 0.0 | 4.0 | 0.00 | 0.00 | 0.00 | 86 | 1021.0 |
| 20260902044604 | 60 | 210 | 0.0 | 4.0 | 0.00 | 0.00 | 0.00 | 86 | 1021.1 |
| 20260902044043 | 60 | 0 | 1.0 | 4.0 | 0.00 | 0.00 | 0.00 | 86 | 1021.0 |
| 20260902043545 | 60 | 207 | 1.0 | 4.0 | 0.00 | 0.00 | 0.00 | 86 | 1021.1 |
| 20260902043111 | 60 | 207 | 1.0 | 6.0 | 0.00 | 0.00 | 0.00 | 86 | 1021.1 |
| 20260902042545 | 60 | 209 | 1.0 | 6.0 | 0.00 | 0.00 | 0.00 | 86 | 1021.2 |
| 20260902042044 | 60 | 212 | 1.0 | 4.0 | 0.00 | 0.00 | 0.00 | 86 | 1021.1 |
| 20260902041603 | 60 | 225 | 1.0 | 4.0 | 0.00 | 0.00 | 0.00 | 85 | 1021.1 |
| 20260902041043 | 60 | 219 | 1.0 | 4.0 | 0.00 | 0.00 | 0.00 | 85 | 1021.0 |
| 20260902040543 | 60 | 218 | 1.0 | 4.0 | 0.00 | 0.00 | 0.00 | 85 | 1021.0 |
| 20260902040104 | 60 | 0 | 1.0 | 4.0 | 0.00 | 0.00 | 0.00 | 85 | 1021.2 |
| 20260902035545 | 60 | 213 | 1.0 | 4.0 | 0.00 | 0.00 | 0.00 | 85 | 1021.1 |
| 20260902035043 | 61 | 212 | 1.0 | 5.0 | 0.00 | 0.00 | 0.00 | 85 | 1021.1 |
| 20260902034557 | 61 | 209 | 2.0 | 5.0 | 0.00 | 0.00 | 0.00 | 84 | 1021.1 |